TimePST,TemperatureF,Dew PointF,Humidity,Sea Level PressureIn,VisibilityMPH,Wind Direction,Wind SpeedMPH,Gust SpeedMPH,PrecipitationIn,Events,Conditions,WindDirDegrees,DateUTC
12:53 AM,46.9,36.0,66,30.26,10.0,ESE,8.1,-,0.00,,Overcast,110,2013-02-28 08:53:00
1:53 AM,46.0,36.0,68,30.27,10.0,Calm,Calm,-,N/A,,Overcast,0,2013-02-28 09:53:00
2:53 AM,46.0,37.0,71,30.27,10.0,SE,10.4,-,0.00,Rain,Light Rain,130,2013-02-28 10:53:00
3:53 AM,45.0,39.0,80,30.26,10.0,SE,8.1,-,0.00,,Overcast,130,2013-02-28 11:53:00
4:53 AM,45.0,39.9,82,30.27,10.0,SE,5.8,-,0.00,,Overcast,140,2013-02-28 12:53:00
5:53 AM,45.0,39.9,82,30.27,10.0,Calm,Calm,-,N/A,,Overcast,0,2013-02-28 13:53:00
6:53 AM,44.1,41.0,89,30.29,10.0,Calm,Calm,-,0.01,Rain,Light Rain,0,2013-02-28 14:53:00
7:53 AM,44.1,42.1,93,30.30,10.0,Calm,Calm,-,0.02,Rain,Light Rain,0,2013-02-28 15:53:00
8:53 AM,45.0,42.1,90,30.30,10.0,Calm,Calm,-,0.00,Rain,Light Rain,0,2013-02-28 16:53:00
9:53 AM,46.0,43.0,89,30.31,10.0,NNW,3.5,-,0.00,,Overcast,330,2013-02-28 17:53:00
10:53 AM,46.9,44.1,90,30.32,10.0,Calm,Calm,-,0.02,Rain,Light Rain,0,2013-02-28 18:53:00
11:53 AM,48.0,44.1,86,30.32,10.0,Calm,Calm,-,0.00,,Overcast,0,2013-02-28 19:53:00
12:53 PM,48.9,45.0,86,30.31,10.0,Calm,Calm,-,0.01,Rain,Light Rain,0,2013-02-28 20:53:00
1:11 PM,48.2,44.6,87,30.30,10.0,Calm,Calm,-,0.00,,Overcast,0,2013-02-28 21:11:00
1:53 PM,50.0,46.0,86,30.30,10.0,Calm,Calm,-,0.00,,Overcast,0,2013-02-28 21:53:00
2:53 PM,50.0,46.0,86,30.30,10.0,Calm,Calm,-,N/A,,Overcast,0,2013-02-28 22:53:00
3:53 PM,51.1,46.9,86,30.31,10.0,Calm,Calm,-,N/A,,Overcast,0,2013-02-28 23:53:00
4:53 PM,51.1,46.9,86,30.32,10.0,Calm,Calm,-,N/A,,Overcast,0,2013-03-01 00:53:00
5:53 PM,50.0,46.9,89,30.33,10.0,Calm,Calm,-,N/A,,Mostly Cloudy,0,2013-03-01 01:53:00
6:53 PM,46.9,45.0,93,30.33,10.0,Calm,Calm,-,N/A,,Scattered Clouds,0,2013-03-01 02:53:00
7:53 PM,44.1,43.0,96,30.34,10.0,Calm,Calm,-,N/A,,Mostly Cloudy,0,2013-03-01 03:53:00
8:53 PM,42.1,42.1,100,30.34,10.0,North,3.5,-,N/A,,Mostly Cloudy,360,2013-03-01 04:53:00
9:53 PM,44.1,43.0,96,30.35,8.0,South,3.5,-,N/A,,Mostly Cloudy,180,2013-03-01 05:53:00
10:53 PM,50.0,45.0,83,30.34,10.0,South,4.6,-,N/A,,Scattered Clouds,180,2013-03-01 06:53:00
11:53 PM,54.0,46.0,75,30.36,10.0,SW,19.6,29.9,N/A,,Overcast,230,2013-03-01 07:53:00